Date String (YYYY-MM-DD hh:mm:ss) UTC,Instrument flags,absolute air pressure of the measurement (hPa),sample flow rate (lpm),inlet stack bypass flow (lpm),air temperature of the measurement (°C),ambient temperature measured by the external sensor (°C),aerosol sample conditioner tube jacket temperature (°C),OPC LED temperature (°C),internal box temperature (°C),relative humidity of the measurement (%),span deviation,mass concentration of particles derived from Lorenz-Mie calculation of OPC scattering (μg/m³),mass concentration of particles derived from Lorenz-Mie calculation of OPC scattering (μg/m³),mass concentration of particles derived from Lorenz-Mie calculation of OPC scattering (μg/m³)
DateTimeUTC,F1_M11,P_M11,Q1_M11,Q2_M11,T1_M11,T2_M11,T3_M11,T4_M11,T5_M11,U1_M11,ZSPAN_M11,X2_M11,X0_M11,X1_M11
2024-04-22 16:00:00,SystemResetWarning,0824.5,5.00,000.00,025.5,024.7,000.0,033.9,027.3,013.3,0000.0,0002.70,0008.96,0001.83
2024-04-22 16:01:00,SystemResetWarning,0824.4,5.01,000.00,025.6,024.7,000.0,033.9,027.3,012.6,0000.0,0002.70,0009.94,0001.83
2024-04-22 16:02:00,SystemResetWarning,0824.4,5.00,000.00,025.6,024.7,000.0,033.9,027.3,013.0,0000.0,0002.67,0010.57,0001.83
2024-04-22 16:03:00,SystemResetWarning,0824.4,5.00,000.00,025.6,024.7,000.0,033.9,027.3,013.4,0000.0,0002.66,0010.20,0001.82
2024-04-22 16:04:00,SystemResetWarning,0824.4,5.00,000.00,025.6,024.7,000.0,034.0,027.3,012.9,0000.0,0002.73,0010.50,0001.83
2024-04-22 16:05:00,SystemResetWarning,0824.4,5.00,000.00,025.6,024.7,000.0,034.0,027.3,013.4,0000.0,0002.70,0010.13,0001.82
2024-04-22 16:06:00,SystemResetWarning,0824.4,4.99,000.00,025.6,024.7,000.0,034.0,027.3,013.0,0000.0,0002.66,0009.65,0001.82
2024-04-22 16:07:00,SystemResetWarning,0824.4,4.99,000.00,025.6,024.7,000.0,034.0,027.4,013.5,0000.0,0002.67,0009.50,0001.82
2024-04-22 16:08:00,SystemResetWarning,0824.4,5.00,000.00,025.6,024.8,000.0,034.0,027.4,013.9,0000.0,0002.61,0009.11,0001.83
2024-04-22 16:09:00,SystemResetWarning,0824.4,5.00,000.00,025.6,024.8,000.0,034.0,027.4,013.3,0000.0,0002.57,0009.02,0001.83
2024-04-22 16:10:00,SystemResetWarning,0824.4,4.99,000.00,025.6,024.8,000.0,034.0,027.4,013.4,0000.0,0002.66,0009.29,0001.83
2024-04-22 16:11:00,SystemResetWarning,0824.4,5.00,000.00,025.6,024.8,000.0,034.0,027.4,013.9,0000.0,0002.70,0009.46,0001.82
2024-04-22 16:12:00,SystemResetWarning,0824.4,4.99,000.00,025.6,024.8,000.0,034.0,027.4,014.2,0000.0,0002.72,0009.06,0001.82
2024-04-22 16:13:00,SystemResetWarning,0824.5,5.00,000.00,025.6,024.8,000.0,034.0,027.4,014.2,0000.0,0002.72,0007.79,0001.83
2024-04-22 16:14:00,SystemResetWarning,0824.6,5.01,000.00,025.6,024.8,000.0,034.0,027.4,013.7,0000.0,0002.70,0007.66,0001.82
2024-04-22 16:15:00,SystemResetWarning,0824.7,5.01,000.00,025.6,024.8,000.0,034.0,027.4,014.0,0000.0,0002.66,0007.45,0001.83
2024-04-22 16:16:00,SystemResetWarning,0824.7,5.01,000.00,025.7,024.8,000.0,034.0,027.4,014.2,0000.0,0002.62,0007.12,0001.83
2024-04-22 16:17:00,SystemResetWarning,0824.7,5.00,000.00,025.7,024.8,000.0,034.0,027.4,014.1,0000.0,0002.61,0007.09,0001.83
2024-04-22 16:18:00,SystemResetWarning,0824.6,5.00,000.00,025.7,024.8,000.0,034.0,027.4,013.0,0000.0,0002.62,0007.99,0001.82
2024-04-22 16:19:00,SystemResetWarning,0824.7,5.00,000.00,025.7,024.8,000.0,034.1,027.4,013.2,0000.0,0002.67,0007.88,0001.83
2024-04-22 16:20:00,SystemResetWarning,0824.7,5.00,000.00,025.7,024.8,000.0,034.1,027.5,013.6,0000.0,0002.70,0007.17,0001.84
2024-04-22 16:21:00,SystemResetWarning,0824.7,5.00,000.00,025.7,024.9,000.0,034.1,027.5,014.5,0000.0,0002.67,0007.34,0001.84
2024-04-22 16:22:00,SystemResetWarning,0824.7,5.00,000.00,025.7,024.9,000.0,034.1,027.5,015.1,0000.0,0002.71,0007.18,0001.86
2024-04-22 16:23:00,SystemResetWarning,0824.6,5.00,000.00,025.7,024.9,000.0,034.1,027.5,014.7,0000.0,0002.77,0007.70,0001.88
2024-04-22 16:24:00,SystemResetWarning,0824.5,5.00,000.00,025.7,024.9,000.0,034.1,027.5,014.5,0000.0,0002.90,0008.67,0001.89
2024-04-22 16:25:00,SystemResetWarning,0824.6,5.00,000.00,025.7,024.9,000.0,034.1,027.5,014.4,0000.0,0002.95,0008.77,0001.91
2024-04-22 16:26:00,SystemResetWarning,0824.6,5.01,000.00,025.7,024.9,000.0,034.1,027.5,014.1,0000.0,0002.95,0008.97,0001.89
2024-04-22 16:27:00,SystemResetWarning,0824.7,5.00,000.00,025.7,024.9,000.0,034.1,027.5,014.5,0000.0,0002.99,0009.01,0001.89
2024-04-22 16:28:00,SystemResetWarning,0824.7,4.99,000.00,025.7,024.9,000.0,034.1,027.5,014.7,0000.0,0003.01,0008.99,0001.89
2024-04-22 16:29:00,SystemResetWarning,0824.7,4.99,000.00,025.7,024.9,000.0,034.1,027.5,013.4,0000.0,0003.00,0008.21,0001.89
2024-04-22 16:30:00,SystemResetWarning,0824.7,5.00,000.00,025.7,024.9,000.0,034.1,027.5,012.9,0000.0,0002.99,0008.36,0001.89
2024-04-22 16:31:00,SystemResetWarning,0824.7,5.01,000.00,025.8,024.9,000.0,034.1,027.5,012.9,0000.0,0002.98,0008.41,0001.88
2024-04-22 16:32:00,SystemResetWarning,0824.7,5.00,000.00,025.8,024.9,000.0,034.2,027.6,012.8,0000.0,0002.95,0008.24,0001.86
2024-04-22 16:33:00,SystemResetWarning,0824.7,5.00,000.00,025.8,025.0,000.0,034.2,027.6,013.3,0000.0,0002.84,0008.16,0001.84
2024-04-22 16:34:00,SystemResetWarning,0824.7,5.00,000.00,025.8,025.0,000.0,034.2,027.6,014.2,0000.0,0002.78,0007.54,0001.84
2024-04-22 16:35:00,SystemResetWarning,0824.7,5.00,000.00,025.8,025.0,000.0,034.2,027.6,013.6,0000.0,0002.70,0006.36,0001.83
2024-04-22 16:36:00,SystemResetWarning,0824.6,5.00,000.00,025.8,025.0,000.0,034.2,027.6,013.2,0000.0,0002.66,0006.30,0001.83
2024-04-22 16:37:00,SystemResetWarning,0824.6,5.00,000.00,025.8,025.0,000.0,034.2,027.6,013.6,0000.0,0002.64,0005.84,0001.84
2024-04-22 16:38:00,SystemResetWarning,0824.7,5.01,000.00,025.9,025.0,000.0,034.2,027.6,013.7,0000.0,0002.65,0006.22,0001.85
2024-04-22 16:39:00,SystemResetWarning,0824.7,5.01,000.00,025.9,025.1,000.0,034.2,027.7,013.5,0000.0,0002.68,0006.50,0001.85
2024-04-22 16:40:00,SystemResetWarning,0824.5,5.01,000.00,025.9,025.1,000.0,034.3,027.7,013.4,0000.0,0002.72,0006.60,0001.87
2024-04-22 16:41:00,SystemResetWarning,0824.5,4.99,000.00,025.9,025.1,000.0,034.3,027.7,013.0,0000.0,0002.71,0006.23,0001.86
2024-04-22 16:42:00,SystemResetWarning,0824.6,5.00,000.00,025.9,025.1,000.0,034.3,027.7,013.1,0000.0,0002.68,0005.48,0001.87
2024-04-22 16:43:00,SystemResetWarning,0824.6,4.99,000.00,025.9,025.1,000.0,034.3,027.7,014.0,0000.0,0002.67,0005.14,0001.89
2024-04-22 16:44:00,SystemResetWarning,0824.7,4.99,000.00,026.0,025.2,000.0,034.3,027.7,014.6,0000.0,0002.72,0005.30,0001.90
2024-04-22 16:45:00,SystemResetWarning,0824.7,5.00,000.00,026.0,025.2,000.0,034.3,027.8,015.3,0000.0,0002.82,0005.68,0001.93
2024-04-22 16:46:00,SystemResetWarning,0824.8,5.02,000.00,026.0,025.2,000.0,034.3,027.8,015.7,0000.0,0002.76,0005.60,0001.92
2024-04-22 16:47:00,SystemResetWarning,0824.7,5.00,000.00,026.0,025.2,000.0,034.3,027.8,015.5,0000.0,0002.75,0005.61,0001.91
2024-04-22 16:48:00,SystemResetWarning,0824.7,5.00,000.00,026.0,025.2,000.0,034.4,027.8,014.5,0000.0,0002.78,0006.01,0001.91
2024-04-22 16:49:00,SystemResetWarning,0824.7,5.00,000.00,026.0,025.2,000.0,034.4,027.8,012.5,0000.0,0002.81,0006.17,0001.91
2024-04-22 16:50:00,SystemResetWarning,0824.7,5.00,000.00,026.0,025.2,000.0,034.4,027.8,012.9,0000.0,0002.76,0005.65,0001.93
2024-04-22 16:51:00,SystemResetWarning,0824.7,5.00,000.00,026.0,025.2,000.0,034.4,027.8,013.3,0000.0,0002.72,0005.65,0001.93
2024-04-22 16:52:00,SystemResetWarning,0824.7,5.00,000.00,026.0,025.2,000.0,034.4,027.8,013.7,0000.0,0002.71,0007.24,0001.93
2024-04-22 16:53:00,SystemResetWarning,0824.7,5.00,000.00,026.1,025.2,000.0,034.4,027.8,013.2,0000.0,0002.72,0007.12,0001.93
2024-04-22 16:54:00,SystemResetWarning,0824.7,5.00,000.00,026.1,025.2,000.0,034.4,027.8,013.8,0000.0,0002.71,0007.15,0001.91
2024-04-22 16:55:00,SystemResetWarning,0824.7,5.01,000.00,026.1,025.3,000.0,034.4,027.9,013.7,0000.0,0002.68,0006.98,0001.90
2024-04-22 16:56:00,SystemResetWarning,0824.7,5.01,000.00,026.1,025.3,000.0,034.4,027.9,012.8,0000.0,0002.58,0006.54,0001.88
2024-04-22 16:57:00,SystemResetWarning,0824.7,5.00,000.00,026.1,025.3,000.0,034.5,027.9,014.2,0000.0,0002.58,0006.49,0001.86
2024-04-22 16:58:00,SystemResetWarning,0824.7,5.01,000.00,026.1,025.3,000.0,034.5,027.9,015.2,0000.0,0002.66,0006.59,0001.86
2024-04-22 16:59:00,SystemResetWarning,0824.7,4.99,000.00,026.1,025.3,000.0,034.5,027.9,015.0,0000.0,0002.68,0006.46,0001.88
